sat.trackr.live / text

‹ back to catalog

STARLINK-5968

NORAD 56010 · 2023-042AA

PAYLOAD ACTIVE UNKNOWN

§ Identity

Operator
Country
US
Launch date
2023-03-24
Launch site
AFETR
Launch vehicle
Mass (kg)
RCS (m²)

Purposes: comms

External: N2YO · Heavens-Above · Gunter

§ Orbital elements

Epoch: 2026-05-24T23:03:20.609280Z

Period
94.27 min
Inclination
43.0052°
Eccentricity
0.0001619
Mean motion
15.27575235 rev/d
Perigee alt
482.0 km
Apogee alt
484.2 km
Semi-major
6,861.2 km
B*
1.5171e-5
RAAN
348.9010°
Arg perigee
271.5253°
Mean anomaly
88.5413°
Rev number
17,453

§ Raw data

STARLINK-59681 56010U 23042AA  26144.96065520  .00000155  00000+0  15171-4 0  99922 56010  43.0052 348.9010 0001619 271.5253  88.5413 15.27575235174536

JSON: /api/v1/satellites/56010 · /tle

For live sub-satellite position, see the globe view (requires WebGL).

§ Visibility from observer

Set your observer location to see the next 7 days of passes ≥ 10°. The values pass through the URL so the page stays shareable.

No JS? Fill the form by hand. The geolocation button needs JavaScript.